Gilze-Rijen, Netherlands

5:22 PM CEST on April 24, 2018 (GMT +0200)
Gilze-Rijen Air Base

Weather History for EHGR - October, 2012

Change the Weather History Date:

Sunday, October 14, 2012

  Actual Average Record
Temperature  
Mean Temperature 47 °F -  
Max Temperature 53 °F 52 °F 69 °F (1996)
Min Temperature 41 °F 41 °F 33 °F (2010)
Degree Days  
Heating Degree Days 18    
Moisture  
Dew Point 43 °F    
Average Humidity 89    
Maximum Humidity 100    
Minimum Humidity 62    
Precipitation  
Precipitation 0.00 in - - ()
Sea Level Pressure  
Sea Level Pressure 29.53 in    
Wind  
Wind Speed 8 mph ()    
Max Wind Speed 12 mph    
Max Gust Speed -    
Visibility 6.0 miles    
Events Rain    
Averages and records for this station are not official NWS values.
T = Trace of Precipitation, MM = Missing Value Source: Averaged Metar Reports

Daily Weather History Graph

Daily Weather History Graph

Search for Another Location

Airport or City:

Astronomy

Oct. 14, 2012 Rise Set
Actual Time 8:03 AM CEST 6:48 PM CEST
Civil Twilight 7:29 AM CEST 7:22 PM CEST
Nautical Twilight 6:50 AM CEST 8:00 PM CEST
Astronomical Twilight 6:11 AM CEST 8:39 PM CEST
Moon 6:39 AM CEST (10/14) 5:58 PM CEST (10/14)
Length of Visible Light 11h 52m
Length of Day
10h 45m
Waning Crescent, 2% of the Moon is Illuminated
Oct 14
Waning Crescent
Oct 15
New
Oct 22
First Quarter
Oct 29
Full
Nov 7
Last Quarter

Hourly Weather History & Observations

Time (CEST) Temp. Windchill Dew Point Humidity Pressure Visibility Wind Dir Wind Speed Gust Speed Precip Events Conditions
12:25 AM 44.6 °F 39.7 °F 42.8 °F 93% 29.59 in 6.2 mi SW 9.2 mph - N/A   Overcast
12:46 AM 44.6 °F 40.2 °F 42.8 °F 93% 29.59 in 6.2 mi SW 8.1 mph - N/A   Drizzle
12:47 AM 44.6 °F 40.7 °F 42.8 °F 93% 29.59 in 6.2 mi SW 6.9 mph - N/A   Drizzle
12:55 AM 44.6 °F 41.4 °F 42.8 °F 93% 29.59 in 6.2 mi SW 5.8 mph - N/A   Light Drizzle
1:09 AM 44.6 °F 40.2 °F 42.8 °F 93% 29.56 in 4.3 mi SW 8.1 mph - N/A Rain Heavy Rain Showers
1:14 AM 44.6 °F 39.7 °F 44.6 °F 100% 29.56 in 5.6 mi SW 9.2 mph - N/A Rain Light Rain Showers
1:25 AM 44.6 °F 40.2 °F 44.6 °F 100% 29.56 in 6.2 mi SW 8.1 mph - N/A Rain Light Rain
1:34 AM 44.6 °F 39.7 °F 44.6 °F 100% 29.56 in 6.2 mi SW 9.2 mph - N/A   Light Drizzle
1:35 AM 44.6 °F 39.7 °F 44.6 °F 100% 29.56 in 6.2 mi SW 9.2 mph - N/A   Partly Cloudy
1:55 AM 44.6 °F 40.2 °F 44.6 °F 100% 29.56 in 6.2 mi SW 8.1 mph - N/A   Mostly Cloudy
2:17 AM 44.6 °F 40.7 °F 44.6 °F 100% 29.56 in 5.6 mi SW 6.9 mph - N/A Rain Light Rain
2:25 AM 44.6 °F 40.7 °F 44.6 °F 100% 29.56 in 6.2 mi SW 6.9 mph - N/A Rain Light Rain
2:29 AM 44.6 °F 40.7 °F 44.6 °F 100% 29.59 in 6.2 mi SW 6.9 mph - N/A Rain Light Rain
2:38 AM 44.6 °F 40.7 °F 44.6 °F 100% 29.56 in 6.2 mi SW 6.9 mph - N/A   Mostly Cloudy
2:48 AM 44.6 °F 40.7 °F 42.8 °F 93% 29.56 in 6.2 mi SW 6.9 mph - N/A   Overcast
2:55 AM 44.6 °F 40.7 °F 42.8 °F 93% 29.56 in 6.2 mi SW 6.9 mph - N/A   Mostly Cloudy
3:01 AM 44.6 °F 40.7 °F 42.8 °F 93% 29.56 in 6.2 mi SSW 6.9 mph - N/A   Mostly Cloudy
3:05 AM 44.6 °F 40.2 °F 42.8 °F 93% 29.56 in 6.2 mi SSW 8.1 mph - N/A   Mostly Cloudy
3:06 AM 44.6 °F 40.2 °F 42.8 °F 93% 29.56 in 5.6 mi SSW 8.1 mph - N/A   Mostly Cloudy
3:25 AM 44.6 °F 40.2 °F 42.8 °F 93% 29.56 in 6.2 mi SW 8.1 mph - N/A   Scattered Clouds
3:55 AM 44.6 °F 40.2 °F 42.8 °F 93% 29.56 in 6.2 mi SSW 8.1 mph - N/A   Mostly Cloudy
4:25 AM 42.8 °F 38.6 °F 42.8 °F 100% 29.56 in 6.2 mi SSW 6.9 mph - N/A   Light Drizzle
4:42 AM 44.6 °F 39.7 °F 42.8 °F 93% 29.56 in 6.2 mi SW 9.2 mph - N/A   Overcast
4:50 AM 44.6 °F 39.7 °F 42.8 °F 93% 29.56 in 6.2 mi SSW 9.2 mph - N/A   Mostly Cloudy
4:55 AM 44.6 °F 39.7 °F 42.8 °F 93% 29.56 in 5.6 mi SSW 9.2 mph - N/A Rain Light Rain
5:09 AM 44.6 °F 40.2 °F 42.8 °F 93% 29.56 in 3.7 mi SW 8.1 mph - N/A Rain Rain
5:14 AM 44.6 °F 40.2 °F 42.8 °F 93% 29.56 in 3.7 mi SW 8.1 mph - N/A Rain Light Rain
5:19 AM 44.6 °F 40.2 °F 42.8 °F 93% 29.56 in 4.3 mi SW 8.1 mph - N/A   Drizzle
5:25 AM 44.6 °F 40.2 °F 42.8 °F 93% 29.56 in 4.3 mi SW 8.1 mph - N/A   Heavy Drizzle
5:36 AM 44.6 °F 40.2 °F 42.8 °F 93% 29.56 in 5.6 mi SW 8.1 mph - N/A   Mostly Cloudy
5:55 AM 42.8 °F 38.0 °F 42.8 °F 100% 29.56 in 5.6 mi SSW 8.1 mph - N/A   Overcast
6:08 AM 42.8 °F 37.5 °F 42.8 °F 100% 29.56 in 5.6 mi SSW 9.2 mph - N/A   Mostly Cloudy
6:12 AM 42.8 °F 37.5 °F 42.8 °F 100% 29.56 in 5.6 mi SSW 9.2 mph - N/A   Mostly Cloudy
6:25 AM 42.8 °F 37.0 °F 42.8 °F 100% 29.56 in 6.2 mi SSW 10.4 mph - N/A   Mostly Cloudy
6:28 AM 42.8 °F 37.0 °F 41.0 °F 93% 29.56 in 6.2 mi SSW 10.4 mph - N/A   Mostly Cloudy
6:46 AM 42.8 °F 37.0 °F 41.0 °F 93% 29.56 in 6.2 mi SSW 10.4 mph - N/A   Mostly Cloudy
6:55 AM 42.8 °F 37.0 °F 41.0 °F 93% 29.56 in 6.2 mi SSW 10.4 mph - N/A   Partly Cloudy
7:19 AM 41.0 °F 35.2 °F 41.0 °F 100% 29.53 in 6.2 mi SSW 9.2 mph - N/A   Mostly Cloudy
7:25 AM 41.0 °F 35.2 °F 41.0 °F 100% 29.53 in 6.2 mi SSW 9.2 mph - N/A   Mostly Cloudy
7:31 AM 42.8 °F 38.0 °F 41.0 °F 93% 29.53 in 6.2 mi SSW 8.1 mph - N/A   Mostly Cloudy
7:55 AM 41.0 °F 35.8 °F 41.0 °F 100% 29.53 in 6.2 mi SSW 8.1 mph - N/A   Mostly Cloudy
8:25 AM 41.0 °F 35.2 °F 41.0 °F 100% 29.53 in 6.2 mi SSW 9.2 mph - N/A   Mostly Cloudy
8:36 AM 41.0 °F 35.2 °F 41.0 °F 100% 29.56 in 6.2 mi SSW 9.2 mph - N/A   Partly Cloudy
8:55 AM 41.0 °F 35.2 °F 41.0 °F 100% 29.56 in 6.2 mi SSW 9.2 mph - N/A   Partly Cloudy
9:01 AM 42.8 °F 37.5 °F 41.0 °F 93% 29.56 in 6.2 mi SSW 9.2 mph - N/A   Scattered Clouds
9:05 AM 42.8 °F 37.0 °F 41.0 °F 93% 29.53 in 6.2 mi SSW 10.4 mph - N/A   Mostly Cloudy
9:10 AM 42.8 °F 36.6 °F 42.8 °F 100% 29.53 in 6.2 mi SSW 11.5 mph - N/A   Mostly Cloudy
9:25 AM 42.8 °F 37.5 °F 42.8 °F 100% 29.53 in 6.2 mi SW 9.2 mph - N/A   Overcast
9:55 AM 44.6 °F 39.7 °F 42.8 °F 93% 29.53 in 6.2 mi SSW 9.2 mph - N/A   Partly Cloudy
10:02 AM 44.6 °F 39.7 °F 42.8 °F 93% 29.53 in 6.2 mi SW 9.2 mph - N/A   Scattered Clouds
10:06 AM 44.6 °F 40.2 °F 44.6 °F 100% 29.53 in 6.2 mi SW 8.1 mph - N/A   Scattered Clouds
10:16 AM 44.6 °F 40.2 °F 42.8 °F 93% 29.53 in 6.2 mi SW 8.1 mph - N/A   Scattered Clouds
10:20 AM 44.6 °F 40.2 °F 42.8 °F 93% 29.53 in 6.2 mi SW 8.1 mph - N/A   Partly Cloudy
10:25 AM 46.4 °F 42.4 °F 42.8 °F 87% 29.53 in 6.2 mi SW 8.1 mph - N/A   Partly Cloudy
10:48 AM 46.4 °F 41.9 °F 42.8 °F 87% 29.53 in 6.2 mi SW 9.2 mph - N/A   Scattered Clouds
10:55 AM 46.4 °F 41.9 °F 44.6 °F 93% 29.53 in 6.2 mi SW 9.2 mph - N/A   Scattered Clouds
11:25 AM 46.4 °F 41.1 °F 44.6 °F 93% 29.56 in 6.2 mi SSW 11.5 mph - N/A   Mostly Cloudy
11:41 AM 48.2 °F - 44.6 °F 87% 29.53 in 6.2 mi SW 10.4 mph - N/A   Partly Cloudy
11:55 AM 50.0 °F - 44.6 °F 82% 29.53 in 6.2 mi WSW 9.2 mph - N/A   Scattered Clouds
12:03 PM 50.0 °F - 44.6 °F 82% 29.53 in 6.2 mi WSW 9.2 mph - N/A   Mostly Cloudy
12:13 PM 50.0 °F - 44.6 °F 82% 29.53 in 6.2 mi SW 8.1 mph - N/A   Partly Cloudy
12:25 PM 50.0 °F - 44.6 °F 82% 29.53 in 6.2 mi SW 9.2 mph - N/A   Mostly Cloudy
12:29 PM 51.8 °F - 44.6 °F 76% 29.53 in 6.2 mi SW 10.4 mph - N/A   Mostly Cloudy
12:42 PM 51.8 °F - 44.6 °F 76% 29.53 in 6.2 mi SW 8.1 mph - N/A   Partly Cloudy
12:55 PM 51.8 °F - 44.6 °F 76% 29.50 in 6.2 mi WSW 8.1 mph - N/A   Partly Cloudy
1:21 PM 53.6 °F - 44.6 °F 72% 29.50 in 6.2 mi WSW 10.4 mph - N/A   Scattered Clouds
1:25 PM 53.6 °F - 42.8 °F 67% 29.50 in 6.2 mi WSW 8.1 mph - N/A   Mostly Cloudy
1:31 PM 51.8 °F - 42.8 °F 71% 29.50 in 6.2 mi WSW 9.2 mph - N/A   Mostly Cloudy
1:36 PM 51.8 °F - 42.8 °F 71% 29.50 in 6.2 mi WSW 10.4 mph - N/A   Mostly Cloudy
1:37 PM 51.8 °F - 42.8 °F 71% 29.50 in 6.2 mi WSW 10.4 mph - N/A   Mostly Cloudy
1:55 PM 51.8 °F - 42.8 °F 71% 29.50 in 6.2 mi West 10.4 mph - N/A   Partly Cloudy
2:25 PM 51.8 °F - 39.2 °F 62% 29.50 in 6.2 mi WSW 9.2 mph - N/A   Mostly Cloudy
2:55 PM 51.8 °F - 41.0 °F 67% 29.50 in 6.2 mi WSW 9.2 mph - N/A   Overcast
3:25 PM 51.8 °F - 41.0 °F 67% 29.47 in 6.2 mi WSW 5.8 mph - N/A   Overcast
3:55 PM 53.6 °F - 41.0 °F 62% 29.47 in 6.2 mi WSW 5.8 mph - N/A   Overcast
4:25 PM 51.8 °F - 42.8 °F 71% 29.47 in 6.2 mi SW 5.8 mph - N/A   Mostly Cloudy
4:55 PM 51.8 °F - 42.8 °F 71% 29.47 in 6.2 mi SW 5.8 mph - N/A   Overcast
5:25 PM 53.6 °F - 42.8 °F 67% 29.47 in 6.2 mi SW 6.9 mph - N/A   Mostly Cloudy
5:55 PM 51.8 °F - 42.8 °F 71% 29.47 in 6.2 mi SW 5.8 mph - N/A   Partly Cloudy
6:25 PM 51.8 °F - 42.8 °F 71% 29.47 in 6.2 mi WSW 4.6 mph - N/A   Mostly Cloudy
6:55 PM 50.0 °F - 42.8 °F 76% 29.47 in 6.2 mi SSW 3.5 mph - N/A   Mostly Cloudy
7:25 PM 48.2 °F - 44.6 °F 87% 29.47 in 6.2 mi SSW 8.1 mph - N/A   Mostly Cloudy
7:55 PM 48.2 °F - 44.6 °F 87% 29.47 in 6.2 mi South 9.2 mph - N/A   Overcast
8:25 PM 46.4 °F 42.4 °F 44.6 °F 93% 29.47 in 6.2 mi SSW 8.1 mph - N/A   Overcast
8:55 PM 46.4 °F 42.9 °F 44.6 °F 93% 29.44 in 6.2 mi SSW 6.9 mph - N/A   Overcast
9:25 PM 44.6 °F 41.4 °F 42.8 °F 93% 29.44 in 6.2 mi SSW 5.8 mph - N/A   Overcast
9:55 PM 44.6 °F 40.7 °F 42.8 °F 93% 29.44 in 6.2 mi SSW 6.9 mph - N/A   Overcast
10:25 PM 44.6 °F 40.7 °F 42.8 °F 93% 29.44 in 6.2 mi SSW 6.9 mph - N/A   Overcast
10:55 PM 44.6 °F 42.2 °F 42.8 °F 93% 29.44 in 6.2 mi SSW 4.6 mph - N/A   Mostly Cloudy
11:25 PM 44.6 °F 42.2 °F 42.8 °F 93% 29.44 in 5.6 mi SW 4.6 mph - N/A   Mostly Cloudy
11:55 PM 42.8 °F 39.3 °F 42.8 °F 100% 29.44 in 5.6 mi SSW 5.8 mph - N/A   Overcast